Time,TemperatureF,DewpointF,PressureIn,WindDirection,WindDirectionDegrees,WindSpeedMPH,WindSpeedGustMPH,Humidity,HourlyPrecipIn,Conditions,Clouds,dailyrainin,SolarRadiationWatts/m^2,SoftwareType,DateUTC
2013-03-22 00:02:00,51.0,25.0,-100.00,NW,314,8.0,17.0,36,0.00,,,0.00,0.000000,,2013-03-22 07:02:00,
2013-03-22 00:12:00,51.0,25.0,-100.00,NW,314,8.0,17.0,36,0.00,,,0.00,0.000000,,2013-03-22 07:12:00,
2013-03-22 00:22:00,51.0,25.0,-100.00,NW,314,8.0,17.0,36,0.00,,,0.00,0.000000,,2013-03-22 07:22:00,
2013-03-22 00:52:00,50.0,24.0,-100.00,NW,322,6.0,15.0,36,0.00,,,0.00,0.000000,,2013-03-22 07:52:00,
2013-03-22 01:02:00,50.0,24.0,-100.00,NW,322,6.0,15.0,36,0.00,,,0.00,0.000000,,2013-03-22 08:02:00,
2013-03-22 01:12:00,50.0,24.0,-100.00,NW,322,6.0,15.0,36,0.00,,,0.00,0.000000,,2013-03-22 08:12:00,
2013-03-22 01:22:00,50.0,24.0,-100.00,NW,322,6.0,15.0,36,0.00,,,0.00,0.000000,,2013-03-22 08:22:00,
2013-03-22 01:52:00,51.0,22.0,-100.00,NW,304,12.0,19.0,32,0.00,,,0.00,0.000000,,2013-03-22 08:52:00,
2013-03-22 02:02:00,51.0,22.0,-100.00,NW,304,12.0,19.0,32,0.00,,,0.00,0.000000,,2013-03-22 09:02:00,
2013-03-22 02:12:00,51.0,22.0,-100.00,NW,304,12.0,19.0,32,0.00,,,0.00,0.000000,,2013-03-22 09:12:00,
2013-03-22 02:22:00,51.0,22.0,-100.00,NW,304,12.0,19.0,32,0.00,,,0.00,0.000000,,2013-03-22 09:22:00,
2013-03-22 02:53:00,49.0,26.0,-100.00,NW,307,11.0,19.0,41,0.00,,,0.00,0.000000,,2013-03-22 09:53:00,
2013-03-22 03:03:00,49.0,26.0,-100.00,NW,307,11.0,19.0,41,0.00,,,0.00,0.000000,,2013-03-22 10:03:00,
2013-03-22 03:12:00,49.0,26.0,-100.00,NW,307,11.0,19.0,41,0.00,,,0.00,0.000000,,2013-03-22 10:12:00,
2013-03-22 03:22:00,49.0,26.0,-100.00,NW,307,11.0,19.0,41,0.00,,,0.00,0.000000,,2013-03-22 10:22:00,
2013-03-22 03:52:00,48.0,20.0,-100.00,NW,316,8.0,18.0,32,0.00,,,0.00,0.000000,,2013-03-22 10:52:00,
2013-03-22 04:02:00,48.0,20.0,-100.00,NW,316,8.0,18.0,32,0.00,,,0.00,0.000000,,2013-03-22 11:02:00,
2013-03-22 04:12:00,48.0,20.0,-100.00,NW,316,8.0,18.0,32,0.00,,,0.00,0.000000,,2013-03-22 11:12:00,
2013-03-22 04:22:00,48.0,20.0,-100.00,NW,316,8.0,18.0,32,0.00,,,0.00,0.000000,,2013-03-22 11:22:00,
2013-03-22 04:52:00,48.0,18.0,-100.00,NW,309,11.0,19.0,30,0.00,,,0.00,0.000000,,2013-03-22 11:52:00,
2013-03-22 05:02:00,48.0,18.0,-100.00,NW,309,11.0,19.0,30,0.00,,,0.00,0.000000,,2013-03-22 12:02:00,
2013-03-22 05:12:00,48.0,18.0,-100.00,NW,309,11.0,19.0,30,0.00,,,0.00,0.000000,,2013-03-22 12:12:00,
2013-03-22 05:22:00,48.0,18.0,-100.00,NW,309,11.0,19.0,30,0.00,,,0.00,0.000000,,2013-03-22 12:22:00,
2013-03-22 05:52:00,47.0,15.0,-100.00,NW,321,9.0,19.0,27,0.00,,,0.00,0.000000,,2013-03-22 12:52:00,
2013-03-22 06:02:00,47.0,15.0,-100.00,NW,321,9.0,19.0,27,0.00,,,0.00,0.000000,,2013-03-22 13:02:00,
2013-03-22 06:12:00,47.0,15.0,-100.00,NW,321,9.0,19.0,27,0.00,,,0.00,0.000000,,2013-03-22 13:12:00,
2013-03-22 06:22:00,47.0,15.0,-100.00,NW,321,9.0,19.0,27,0.00,,,0.00,0.000000,,2013-03-22 13:22:00,
2013-03-22 06:52:00,45.0,12.0,-100.00,NNW,335,9.0,18.0,26,0.00,,,0.00,0.000000,,2013-03-22 13:52:00,
2013-03-22 07:02:00,45.0,12.0,-100.00,NNW,335,9.0,18.0,26,0.00,,,0.00,0.000000,,2013-03-22 14:02:00,
2013-03-22 07:12:00,45.0,12.0,-100.00,NNW,335,9.0,18.0,26,0.00,,,0.00,0.000000,,2013-03-22 14:12:00,
2013-03-22 07:21:00,45.0,12.0,-100.00,NNW,335,9.0,18.0,26,0.00,,,0.00,0.000000,,2013-03-22 14:21:00,
2013-03-22 07:52:00,45.0,9.0,-100.00,NNW,339,9.0,26.0,23,0.00,,,0.00,4.000000,,2013-03-22 14:52:00,
2013-03-22 08:02:00,45.0,9.0,-100.00,NNW,339,9.0,26.0,23,0.00,,,0.00,4.000000,,2013-03-22 15:02:00,
2013-03-22 08:12:00,45.0,9.0,-100.00,NNW,339,9.0,26.0,23,0.00,,,0.00,4.000000,,2013-03-22 15:12:00,
2013-03-22 08:22:00,45.0,9.0,-100.00,NNW,339,9.0,26.0,23,0.00,,,0.00,4.000000,,2013-03-22 15:22:00,
2013-03-22 08:53:00,48.0,12.0,-100.00,North,352,9.0,22.0,23,0.00,,,0.00,84.000000,,2013-03-22 15:53:00,
2013-03-22 09:02:00,48.0,12.0,-100.00,North,352,9.0,22.0,23,0.00,,,0.00,84.000000,,2013-03-22 16:02:00,
2013-03-22 09:13:00,48.0,12.0,-100.00,North,352,9.0,22.0,23,0.00,,,0.00,84.000000,,2013-03-22 16:13:00,
2013-03-22 09:22:00,48.0,12.0,-100.00,North,352,9.0,22.0,23,0.00,,,0.00,84.000000,,2013-03-22 16:22:00,
2013-03-22 09:52:00,53.0,14.0,-100.00,NNE,24,9.0,21.0,21,0.00,,,0.00,285.000000,,2013-03-22 16:52:00,
2013-03-22 10:03:00,53.0,14.0,-100.00,NNE,24,9.0,21.0,21,0.00,,,0.00,285.000000,,2013-03-22 17:03:00,
2013-03-22 10:12:00,53.0,14.0,-100.00,NNE,24,9.0,21.0,21,0.00,,,0.00,285.000000,,2013-03-22 17:12:00,
2013-03-22 10:22:00,53.0,14.0,-100.00,NNE,24,9.0,21.0,21,0.00,,,0.00,285.000000,,2013-03-22 17:22:00,
2013-03-22 10:53:00,57.0,17.0,-100.00,NNE,15,8.0,20.0,21,0.00,,,0.00,488.000000,,2013-03-22 17:53:00,
2013-03-22 11:02:00,57.0,17.0,-100.00,NNE,15,8.0,20.0,21,0.00,,,0.00,488.000000,,2013-03-22 18:02:00,
2013-03-22 11:12:00,57.0,17.0,-100.00,NNE,15,8.0,20.0,21,0.00,,,0.00,488.000000,,2013-03-22 18:12:00,
2013-03-22 11:22:00,57.0,17.0,-100.00,NNE,15,8.0,20.0,21,0.00,,,0.00,488.000000,,2013-03-22 18:22:00,
2013-03-22 11:52:00,59.0,18.0,-100.00,North,2,8.0,21.0,20,0.00,,,0.00,654.000000,,2013-03-22 18:52:00,
2013-03-22 12:02:00,59.0,18.0,-100.00,North,2,8.0,21.0,20,0.00,,,0.00,654.000000,,2013-03-22 19:02:00,
2013-03-22 12:12:00,59.0,18.0,-100.00,North,2,8.0,21.0,20,0.00,,,0.00,654.000000,,2013-03-22 19:12:00,
2013-03-22 12:22:00,59.0,18.0,-100.00,North,2,8.0,21.0,20,0.00,,,0.00,654.000000,,2013-03-22 19:22:00,
2013-03-22 12:52:00,62.0,20.0,-100.00,NNW,346,8.0,17.0,20,0.00,,,0.00,772.000000,,2013-03-22 19:52:00,
2013-03-22 13:02:00,62.0,20.0,-100.00,NNW,346,8.0,17.0,20,0.00,,,0.00,772.000000,,2013-03-22 20:02:00,
2013-03-22 13:12:00,62.0,20.0,-100.00,NNW,346,8.0,17.0,20,0.00,,,0.00,772.000000,,2013-03-22 20:12:00,
2013-03-22 13:22:00,62.0,20.0,-100.00,NNW,346,8.0,17.0,20,0.00,,,0.00,772.000000,,2013-03-22 20:22:00,
2013-03-22 13:52:00,65.0,20.0,-100.00,NNW,346,6.0,17.0,18,0.00,,,0.00,828.000000,,2013-03-22 20:52:00,
2013-03-22 14:02:00,65.0,20.0,-100.00,NNW,346,6.0,17.0,18,0.00,,,0.00,828.000000,,2013-03-22 21:02:00,
2013-03-22 14:12:00,65.0,20.0,-100.00,NNW,346,6.0,17.0,18,0.00,,,0.00,828.000000,,2013-03-22 21:12:00,
2013-03-22 14:22:00,65.0,20.0,-100.00,NNW,346,6.0,17.0,18,0.00,,,0.00,828.000000,,2013-03-22 21:22:00,
2013-03-22 14:53:00,63.0,20.0,-100.00,NNW,336,9.0,19.0,19,0.00,,,0.00,817.000000,,2013-03-22 21:53:00,
2013-03-22 15:02:00,63.0,20.0,-100.00,NNW,336,9.0,19.0,19,0.00,,,0.00,817.000000,,2013-03-22 22:02:00,
2013-03-22 15:12:00,63.0,20.0,-100.00,NNW,336,9.0,19.0,19,0.00,,,0.00,817.000000,,2013-03-22 22:12:00,
2013-03-22 15:22:00,63.0,20.0,-100.00,NNW,336,9.0,19.0,19,0.00,,,0.00,817.000000,,2013-03-22 22:22:00,
2013-03-22 15:53:00,64.0,17.0,-100.00,NNW,331,8.0,18.0,16,0.00,,,0.00,744.000000,,2013-03-22 22:53:00,
2013-03-22 16:02:00,64.0,17.0,-100.00,NNW,331,8.0,18.0,16,0.00,,,0.00,744.000000,,2013-03-22 23:02:00,
2013-03-22 16:12:00,64.0,17.0,-100.00,NNW,331,8.0,18.0,16,0.00,,,0.00,744.000000,,2013-03-22 23:12:00,
2013-03-22 16:22:00,64.0,17.0,-100.00,NNW,331,8.0,18.0,16,0.00,,,0.00,744.000000,,2013-03-22 23:22:00,
2013-03-22 16:52:00,64.0,21.0,-100.00,NW,324,8.0,16.0,19,0.00,,,0.00,612.000000,,2013-03-22 23:52:00,
2013-03-22 17:02:00,64.0,21.0,-100.00,NW,324,8.0,16.0,19,0.00,,,0.00,612.000000,,2013-03-23 00:02:00,
2013-03-22 17:12:00,64.0,21.0,-100.00,NW,324,8.0,16.0,19,0.00,,,0.00,612.000000,,2013-03-23 00:12:00,
2013-03-22 17:22:00,64.0,21.0,-100.00,NW,324,8.0,16.0,19,0.00,,,0.00,612.000000,,2013-03-23 00:22:00,
2013-03-22 17:52:00,60.0,19.0,-100.00,NNW,347,7.0,13.0,20,0.00,,,0.00,441.000000,,2013-03-23 00:52:00,
2013-03-22 18:03:00,60.0,19.0,-100.00,NNW,347,7.0,13.0,20,0.00,,,0.00,441.000000,,2013-03-23 01:03:00,
2013-03-22 18:11:00,60.0,19.0,-100.00,NNW,347,7.0,13.0,20,0.00,,,0.00,441.000000,,2013-03-23 01:11:00,
2013-03-22 18:22:00,60.0,19.0,-100.00,NNW,347,7.0,13.0,20,0.00,,,0.00,441.000000,,2013-03-23 01:22:00,
2013-03-22 18:52:00,57.0,19.0,-100.00,NNW,329,6.0,13.0,22,0.00,,,0.00,243.000000,,2013-03-23 01:52:00,
2013-03-22 19:02:00,57.0,19.0,-100.00,NNW,329,6.0,13.0,22,0.00,,,0.00,243.000000,,2013-03-23 02:02:00,
2013-03-22 19:12:00,57.0,19.0,-100.00,NNW,329,6.0,13.0,22,0.00,,,0.00,243.000000,,2013-03-23 02:12:00,
2013-03-22 19:22:00,57.0,19.0,-100.00,NNW,329,6.0,13.0,22,0.00,,,0.00,243.000000,,2013-03-23 02:22:00,
2013-03-22 19:52:00,53.0,22.0,-100.00,NW,316,7.0,12.0,29,0.00,,,0.00,56.000000,,2013-03-23 02:52:00,
2013-03-22 20:02:00,53.0,22.0,-100.00,NW,316,7.0,12.0,29,0.00,,,0.00,56.000000,,2013-03-23 03:02:00,
2013-03-22 20:12:00,53.0,22.0,-100.00,NW,316,7.0,12.0,29,0.00,,,0.00,56.000000,,2013-03-23 03:12:00,
2013-03-22 20:22:00,53.0,22.0,-100.00,NW,316,7.0,12.0,29,0.00,,,0.00,56.000000,,2013-03-23 03:22:00,
2013-03-22 20:53:00,50.0,16.0,-100.00,NE,41,4.0,12.0,25,0.00,,,0.00,0.000000,,2013-03-23 03:53:00,
2013-03-22 21:02:00,50.0,16.0,-100.00,NE,41,4.0,12.0,25,0.00,,,0.00,0.000000,,2013-03-23 04:02:00,
2013-03-22 21:12:00,50.0,16.0,-100.00,NE,41,4.0,12.0,25,0.00,,,0.00,0.000000,,2013-03-23 04:12:00,
2013-03-22 21:22:00,50.0,16.0,-100.00,NE,41,4.0,12.0,25,0.00,,,0.00,0.000000,,2013-03-23 04:22:00,
2013-03-22 21:53:00,50.0,13.0,-100.00,NW,325,4.0,13.0,22,0.00,,,0.00,0.000000,,2013-03-23 04:53:00,
2013-03-22 22:02:00,50.0,13.0,-100.00,NW,325,4.0,13.0,22,0.00,,,0.00,0.000000,,2013-03-23 05:02:00,
2013-03-22 22:12:00,50.0,13.0,-100.00,NW,325,4.0,13.0,22,0.00,,,0.00,0.000000,,2013-03-23 05:12:00,
2013-03-22 22:22:00,50.0,13.0,-100.00,NW,325,4.0,13.0,22,0.00,,,0.00,0.000000,,2013-03-23 05:22:00,
2013-03-22 22:52:00,51.0,15.0,-100.00,NW,326,5.0,15.0,23,0.00,,,0.00,0.000000,,2013-03-23 05:52:00,
2013-03-22 23:02:00,51.0,15.0,-100.00,NW,326,5.0,15.0,23,0.00,,,0.00,0.000000,,2013-03-23 06:02:00,
2013-03-22 23:12:00,51.0,15.0,-100.00,NW,326,5.0,15.0,23,0.00,,,0.00,0.000000,,2013-03-23 06:12:00,
2013-03-22 23:22:00,51.0,15.0,-100.00,NW,326,5.0,15.0,23,0.00,,,0.00,0.000000,,2013-03-23 06:22:00,
2013-03-22 23:52:00,50.0,16.0,-100.00,NW,326,6.0,14.0,25,0.00,,,0.00,0.000000,,2013-03-23 06:52:00,